This is the latest recevied weather packets stored in our database for station/object K6MBY. If no packets are shown the sender has not sent any weather packets the latest 10 day(s).
| Time | Temp. | Humidity | Pressure | Rain* | Wind** | Luminosity | Snow |
|---|---|---|---|---|---|---|---|
| 1777561068 | 11.67° C | 82% | 1025.5 hPa | 0 mm | - | 161 W/m² | - |
| 1777560764 | 11.67° C | 82% | 1025.5 hPa | 0 mm | - | 168 W/m² | - |
| 1777560461 | 12.22° C | 81% | 1025.5 hPa | 0 mm | - | 160 W/m² | - |
| 1777560159 | 12.22° C | 81% | 1025.5 hPa | 0 mm | - | 166 W/m² | - |
| 1777559856 | 11.67° C | 82% | 1025.4 hPa | 0 mm | - | 163 W/m² | - |
| 1777559551 | 11.67° C | 82% | 1025.4 hPa | 0 mm | - | 159 W/m² | - |
| 1777559249 | 11.11° C | 82% | 1025.4 hPa | 0 mm | - | 152 W/m² | - |
| 1777558944 | 11.11° C | 82% | 1025.2 hPa | 0 mm | - | 132 W/m² | - |
| 1777558640 | 10.56° C | 82% | 1025.3 hPa | 0 mm | - | 121 W/m² | - |
| 1777558335 | 10.56° C | 81% | 1025.2 hPa | 0 mm | - | 110 W/m² | - |
| 1777558033 | 10.56° C | 82% | 1025.2 hPa | 0 mm | - | 95 W/m² | - |
| 1777557728 | 10° C | 83% | 1025 hPa | 0 mm | - | 91 W/m² | - |
| 1777557425 | 9.44° C | 85% | 1025.1 hPa | 0 mm | - | 78 W/m² | - |
| 1777557116 | 8.89° C | 86% | 1025 hPa | 0 mm | - | 69 W/m² | - |
| 1777556811 | 8.33° C | 88% | 1025 hPa | 0 mm | - | 62 W/m² | - |
| 1777556509 | 8.33° C | 88% | 1025.1 hPa | 0 mm | - | 55 W/m² | - |
| 1777556207 | 8.33° C | 89% | 1025 hPa | 0 mm | - | 48 W/m² | - |
| 1777555904 | 8.33° C | 88% | 1025.1 hPa | 0 mm | - | 41 W/m² | - |
| 1777555599 | 8.89° C | 88% | 1024.8 hPa | 0 mm | - | 34 W/m² | - |
| 1777555297 | 8.89° C | 88% | 1024.9 hPa | 0 mm | - | 27 W/m² | - |
| 1777554993 | 8.89° C | 89% | 1024.9 hPa | 0 mm | - | 20 W/m² | - |
| 1777554690 | 8.89° C | 90% | 1024.8 hPa | 0 mm | - | 14 W/m² | - |
| 1777554387 | 8.33° C | 90% | 1024.8 hPa | 0 mm | - | 10 W/m² | - |
| 1777554084 | 7.78° C | 90% | 1024.8 hPa | 0 mm | - | 7 W/m² | - |
| 1777553780 | 7.78° C | 90% | 1025 hPa | 0 mm | - | 5 W/m² | - |
* Rain latest hour (hover to see other rain measurements)
** Current wind speed in m/s (hover to see current wind gust speed)